Duluth, MN

1:13 PM CST on February 26, 2017 (GMT -0600)
Sky Harbor

Weather History for KDYT - July, 2013

Change the Weather History Date:

Monday, July 22, 2013

  Actual Average Record
Temperature  
Mean Temperature 70 °F -  
Max Temperature 84 °F 75 °F 92 °F (1955)
Min Temperature 55 °F 55 °F 42 °F (1985)
Cooling Degree Days 4    
Growing Degree Days 20 (Base 50)    
Moisture  
Dew Point 57 °F    
Average Humidity 72    
Maximum Humidity 94    
Minimum Humidity 48    
Precipitation  
Precipitation 0.00 in - - ()
Sea Level Pressure  
Sea Level Pressure 29.72 in    
Wind  
Wind Speed 12 mph (NW)    
Max Wind Speed 24 mph    
Max Gust Speed 29 mph    
Visibility 10 miles    
Events Rain , Thunderstorm    
Averages and records for this station are not official NWS values.
T = Trace of Precipitation, MM = Missing Value Source: NWS Daily Summary

Daily Weather History Graph

Daily Weather History Graph

Search for Another Location

Airport or City:

Trip Planner

Search our weather history database for the weather conditions in past years. The results will help you decide how hot, cold, wet, or windy it might be!

Date:

Astronomy

Jul. 22, 2013 Rise Set
Actual Time 5:37 AM CDT 8:51 PM CDT
Civil Twilight 5:00 AM CDT 9:28 PM CDT
Nautical Twilight 4:12 AM CDT 10:15 PM CDT
Astronomical Twilight 3:12 AM CDT 11:15 PM CDT
Moon 8:31 PM CDT (7/22) 5:38 AM CDT (7/22)
Length of Visible Light 16h 27m
Length of Day
15h 14m
Full, 100% of the Moon is Illuminated
Jul 22
Full
Jul 22
Full
Jul 29
Last Quarter
Aug 6
New
Aug 14
First Quarter

Hourly Weather History & Observations

Time (CDT) Temp. Heat Index Dew Point Humidity Pressure Visibility Wind Dir Wind Speed Gust Speed Precip Events Conditions
12:14 AM 57.2 °F - 53.6 °F 88% 29.85 in 10.0 mi NE 16.1 mph - N/A   Clear
12:33 AM 55.4 °F - 51.8 °F 88% 29.84 in 10.0 mi NE 15.0 mph - N/A   Scattered Clouds
12:53 AM 55.4 °F - 51.8 °F 88% 29.84 in 10.0 mi NE 13.8 mph - N/A   Mostly Cloudy
1:14 AM 55.4 °F - 51.8 °F 88% 29.84 in 10.0 mi NE 13.8 mph - N/A   Overcast
1:33 AM 55.4 °F - 51.8 °F 88% 29.83 in 10.0 mi ENE 13.8 mph - N/A   Mostly Cloudy
1:53 AM 55.4 °F - 51.8 °F 88% 29.83 in 10.0 mi ENE 12.7 mph - N/A   Mostly Cloudy
2:14 AM 55.4 °F - 51.8 °F 88% 29.81 in 10.0 mi ENE 15.0 mph - N/A   Overcast
2:33 AM 55.4 °F - 51.8 °F 88% 29.80 in 10.0 mi ENE 12.7 mph - N/A   Overcast
2:53 AM 55.4 °F - 51.8 °F 88% 29.79 in 10.0 mi ENE 8.1 mph - N/A   Overcast
3:13 AM 55.4 °F - 51.8 °F 88% 29.76 in 10.0 mi ENE 8.1 mph - N/A   Overcast
3:33 AM 55.4 °F - 51.8 °F 88% 29.74 in 10.0 mi ENE 8.1 mph - N/A   Overcast
3:53 AM 55.4 °F - 51.8 °F 88% 29.76 in 10.0 mi NNE 8.1 mph - N/A   Overcast
4:13 AM 55.4 °F - 51.8 °F 88% 29.75 in 10.0 mi NE 5.8 mph - N/A   Overcast
4:34 AM 55.4 °F - 51.8 °F 88% 29.72 in 10.0 mi ENE 10.4 mph - N/A   Mostly Cloudy
4:53 AM 55.4 °F - 51.8 °F 88% 29.74 in 10.0 mi NE 10.4 mph - N/A   Mostly Cloudy
5:13 AM 55.4 °F - 51.8 °F 88% 29.73 in 10.0 mi ENE 8.1 mph - N/A Rain Light Rain
5:34 AM 55.4 °F - 51.8 °F 88% 29.72 in 10.0 mi ENE 5.8 mph - N/A Thunderstorm Unknown
5:53 AM 55.4 °F - 51.8 °F 88% 29.73 in 10.0 mi NE 4.6 mph - N/A Rain Light Rain
6:13 AM 55.4 °F - 53.6 °F 94% 29.73 in 10.0 mi NE 5.8 mph - N/A   Light Drizzle
6:34 AM 55.4 °F - 53.6 °F 94% 29.72 in 10.0 mi ENE 3.5 mph - N/A Rain Light Rain
6:53 AM 55.4 °F - 53.6 °F 94% 29.70 in 10.0 mi East 4.6 mph - N/A Rain Rain
7:13 AM 55.4 °F - 53.6 °F 94% 29.69 in 10.0 mi Calm Calm - N/A   Mostly Cloudy
7:34 AM 55.4 °F - 53.6 °F 94% 29.68 in 10.0 mi Calm Calm - N/A   Overcast
7:53 AM 57.2 °F - 53.6 °F 88% 29.68 in 10.0 mi Calm Calm - N/A   Mostly Cloudy
8:13 AM 57.2 °F - 55.4 °F 94% 29.67 in 10.0 mi North 3.5 mph - N/A   Scattered Clouds
8:34 AM 57.2 °F - 55.4 °F 94% 29.66 in 10.0 mi North 3.5 mph - N/A   Scattered Clouds
8:53 AM 57.2 °F - 53.6 °F 88% 29.66 in 10.0 mi Calm Calm - N/A   Scattered Clouds
9:13 AM 59.0 °F - 55.4 °F 88% 29.66 in 10.0 mi NW 3.5 mph - N/A   Scattered Clouds
9:34 AM 60.8 °F - 57.2 °F 88% 29.65 in 10.0 mi NW 3.5 mph - N/A   Scattered Clouds
9:53 AM 62.6 °F - 57.2 °F 82% 29.65 in 10.0 mi Calm Calm - N/A   Mostly Cloudy
10:13 AM 62.6 °F - 59.0 °F 88% 29.63 in 10.0 mi ENE 3.5 mph - N/A   Mostly Cloudy
10:34 AM 71.6 °F - 66.2 °F 83% 29.63 in 10.0 mi SW 10.4 mph - N/A   Mostly Cloudy
10:53 AM 73.4 °F - 68.0 °F 83% 29.63 in 10.0 mi SW 11.5 mph - N/A   Overcast
11:13 AM 75.2 °F - 68.0 °F 78% 29.62 in 10.0 mi SW 16.1 mph 19.6 mph N/A   Overcast
11:33 AM 75.2 °F - 69.8 °F 83% 29.63 in 10.0 mi SW 11.5 mph - N/A   Overcast
11:53 AM 75.2 °F - 69.8 °F 83% 29.62 in 10.0 mi SW 15.0 mph - N/A   Mostly Cloudy
12:14 PM 78.8 °F - 69.8 °F 74% 29.62 in 10.0 mi SW 15.0 mph - N/A   Scattered Clouds
12:33 PM 80.6 °F 83.9 °F 69.8 °F 70% 29.61 in 10.0 mi SW 16.1 mph 21.9 mph N/A   Scattered Clouds
12:54 PM 82.4 °F 86.3 °F 69.8 °F 66% 29.61 in 10.0 mi WSW 13.8 mph 18.4 mph N/A   Scattered Clouds
1:13 PM 82.4 °F 83.9 °F 64.4 °F 54% 29.61 in 10.0 mi West 15.0 mph 23.0 mph N/A   Scattered Clouds
1:33 PM 84.2 °F 85.0 °F 62.6 °F 48% 29.61 in 10.0 mi West 20.7 mph 24.2 mph N/A   Scattered Clouds
1:53 PM 82.4 °F 83.4 °F 62.6 °F 51% 29.62 in 10.0 mi West 19.6 mph 25.3 mph N/A   Scattered Clouds
2:14 PM 82.4 °F 83.4 °F 62.6 °F 51% 29.62 in 10.0 mi WNW 21.9 mph - N/A   Scattered Clouds
2:33 PM 82.4 °F 82.9 °F 60.8 °F 48% 29.63 in 10.0 mi West 21.9 mph 25.3 mph N/A   Scattered Clouds
2:53 PM 82.4 °F 82.9 °F 60.8 °F 48% 29.63 in 10.0 mi West 17.3 mph - N/A   Scattered Clouds
3:14 PM 80.6 °F 81.5 °F 60.8 °F 51% 29.64 in 10.0 mi WNW 24.2 mph 28.8 mph N/A   Clear
3:33 PM 80.6 °F 81.5 °F 60.8 °F 51% 29.65 in 10.0 mi WNW 19.6 mph - N/A   Scattered Clouds
3:53 PM 78.8 °F - 60.8 °F 54% 29.66 in 10.0 mi WNW 20.7 mph 25.3 mph N/A   Mostly Cloudy
4:14 PM 78.8 °F - 59.0 °F 51% 29.68 in 10.0 mi WNW 18.4 mph - N/A   Scattered Clouds
4:33 PM 78.8 °F - 59.0 °F 51% 29.69 in 10.0 mi NW 19.6 mph - N/A   Scattered Clouds
4:53 PM 77.0 °F - 57.2 °F 50% 29.70 in 10.0 mi WNW 21.9 mph 26.5 mph N/A   Mostly Cloudy
5:13 PM 75.2 °F - 57.2 °F 53% 29.71 in 10.0 mi NW 17.3 mph 21.9 mph N/A   Mostly Cloudy
5:33 PM 75.2 °F - 57.2 °F 53% 29.71 in 10.0 mi WNW 20.7 mph 24.2 mph N/A   Overcast
5:54 PM 73.4 °F - 57.2 °F 57% 29.72 in 10.0 mi WNW 15.0 mph - N/A   Mostly Cloudy
6:13 PM 73.4 °F - 57.2 °F 57% 29.72 in 10.0 mi NW 13.8 mph - N/A   Overcast
6:33 PM 73.4 °F - 55.4 °F 53% 29.72 in 10.0 mi NW 15.0 mph 18.4 mph N/A   Overcast
6:54 PM 73.4 °F - 55.4 °F 53% 29.73 in 10.0 mi NW 10.4 mph - N/A   Overcast
7:13 PM 73.4 °F - 55.4 °F 53% 29.73 in 10.0 mi NNW 10.4 mph 16.1 mph N/A   Overcast
7:33 PM 73.4 °F - 55.4 °F 53% 29.74 in 10.0 mi WNW 15.0 mph - N/A   Overcast
7:54 PM 73.4 °F - 55.4 °F 53% 29.74 in 10.0 mi NW 16.1 mph 20.7 mph N/A   Mostly Cloudy
8:13 PM 73.4 °F - 55.4 °F 53% 29.75 in 10.0 mi NW 10.4 mph - N/A   Mostly Cloudy
8:33 PM 71.6 °F - 55.4 °F 57% 29.77 in 10.0 mi NNW 12.7 mph 16.1 mph N/A   Mostly Cloudy
8:53 PM 71.6 °F - 55.4 °F 57% 29.78 in 10.0 mi NW 11.5 mph - N/A   Overcast
9:13 PM 71.6 °F - 55.4 °F 57% 29.79 in 10.0 mi NW 9.2 mph 16.1 mph N/A   Mostly Cloudy
9:33 PM 69.8 °F - 55.4 °F 60% 29.79 in 10.0 mi WNW 10.4 mph - N/A   Clear
9:53 PM 69.8 °F - 55.4 °F 60% 29.81 in 10.0 mi WNW 9.2 mph - N/A   Clear
10:14 PM 69.8 °F - 55.4 °F 60% 29.80 in 10.0 mi WNW 8.1 mph - N/A   Clear
10:33 PM 69.8 °F - 55.4 °F 60% 29.80 in 10.0 mi WNW 10.4 mph - N/A   Clear
10:53 PM 69.8 °F - 55.4 °F 60% 29.81 in 10.0 mi WNW 10.4 mph - N/A   Clear
11:14 PM 68.0 °F - 55.4 °F 64% 29.82 in 10.0 mi WNW 10.4 mph - N/A   Clear
11:33 PM 66.2 °F - 55.4 °F 68% 29.82 in 10.0 mi West 9.2 mph - N/A   Clear
11:53 PM 66.2 °F - 55.4 °F 68% 29.82 in 10.0 mi West 10.4 mph - N/A   Clear